Regional Weather Roundup
Issued by NWS

Home | Current Version | Previous Version | Graphics & Text | Print | Product List | Glossary Off
Versions: 1 2 3 4 5 6 7 8 9 10 11 12 13 14 15 16 17 18 19 20 21 22 23 24 25 26 27 28 29 30 31 32 33 34 35 36 37 38 39 40 41 42 43 44 45 46 47 48 49 50

000
ASUS43 KMKX 040221
RWRWI

WISCONSIN REGIONAL WEATHER ROUNDUP
NATIONAL WEATHER SERVICE MILWAUKEE/SULLIVAN WI
900 PM CDT MON AUG 03 2015

NOTE: "FAIR" INDICATES FEW OR NO CLOUDS BELOW 12,000 FEET WITH NO
SIGNIFICANT WEATHER AND/OR OBSTRUCTIONS TO VISIBILITY.

WIZ001-002-006>008-014>016-023>028-040300-
NORTHWEST WISCONSIN

CITY           SKY/WX    TMP DP  RH WIND       PRES   REMARKS
SUPERIOR ARPT  CLOUDY    66  53  63 NW10      29.87R
ASHLAND        CLOUDY    61  57  87 CALM      29.87R
HAYWARD        CLOUDY    67  54  63 CALM      29.88S
SIREN          MOCLDY    67  54  61 NW5       29.90R
CUMBERLAND     CLOUDY    63  54  72 W5        29.89S
RICE LAKE      CLOUDY    63  57  81 CALM      29.90S
CHETEK         CLOUDY    64  55  70 CALM      29.88S
LADYSMITH      CLOUDY    67  56  68 CALM      29.90S
EAU CLAIRE     CLEAR     65  53  65 CALM      29.88S
MENOMONIE      CLEAR     70  52  52 SW3       29.88S
NEW RICHMOND   PTCLDY    65  54  66 W3        29.89F
OSCEOLA        MOCLDY    68  54  59 NW5       29.91S
$$

WIZ003>005-009-010-017-018-040300-
NORTH CENTRAL WISCONSIN

CITY           SKY/WX    TMP DP  RH WIND       PRES   REMARKS
MANITOWISH WTR CLOUDY    58  58 100 N3        29.88R
ARBOR VITAE    CLOUDY    62  56  80 N6        29.87R
WOODRUFF       CLOUDY    62  56  80 N6        29.87R
RHINELANDER    MOCLDY    59  54  83 W3        29.88S
EAGLE RIVER    RAIN      59  54  82 NW6       29.87R
LAND O LAKES   LGT RAIN  58  56  91 NW5       29.89R
PHILLIPS       CLOUDY    63  56  77 CALM      29.87S
TOMAHAWK       CLOUDY    62  55  75 CALM      29.88S
MEDFORD        PTCLDY    60  55  81 SW3       29.89S HAZE
MERRILL        NOT AVBL
$$

WIZ029-030-035-036-043>047-040300-
CENTRAL WISCONSIN

CITY           SKY/WX    TMP DP  RH WIND       PRES   REMARKS
WAUSAU         MOCLDY    66  53  63 W7        29.87R
MOSINEE        PTCLDY    64  54  68 W6        29.89S
MARSHFIELD     PTCLDY    64  53  67 W3        29.89S
STEVENS POINT  MOCLDY    66  51  58 NW3       29.89R
WAUPACA        CLEAR     69  53  55 NW3       29.88R
WAUTOMA        CLEAR     70  53  54 NW6       29.89R
WISC RAPIDS    MOCLDY    67  52  58 NW3       29.89S
CAMP DOUGLAS   PTCLDY    59  55  88 CALM      29.89R
$$

WIZ011>013-019>022-031-037>040-048>050-040300-
NORTHEAST WISCONSIN

CITY           SKY/WX    TMP DP  RH WIND       PRES   REMARKS
ANTIGO         CLEAR     59  53  80 W5        29.88S
SHAWANO        CLOUDY    68  56  64 W5        29.86R
OCONTO         CLOUDY    64  58  80 CALM      29.84R
STURGEON BAY   MOCLDY    66  54  63 NW5       29.86R
GREEN BAY      CLOUDY    66  57  72 NW5       29.85R
MANITOWOC      CLOUDY    70  55  59 MISG      29.85R
APPLETON       PTCLDY    68  48  49 NW10      29.87R
CLINTONVILLE   CLOUDY    68  54  60 NW5       29.86R
OSHKOSH        MOCLDY    69  54  58 NW6       29.86R
$$

WIZ032>034-041-042-053>061-040300-
SOUTHWEST WISCONSIN

CITY           SKY/WX    TMP DP  RH WIND       PRES   REMARKS
LA CROSSE      CLEAR     71  52  50 W6        29.89R
SPARTA         PTCLDY    62  51  68 CALM      29.90S
VIROQUA        CLEAR     63  54  74 CALM      29.92R
BOSCOBEL       PTCLDY    66  53  63 CALM      29.90R
PRAIRIE DU CHI CLEAR     70  53  54 CALM      29.90R
PLATTEVILLE    CLEAR     67  55  63 W5        29.92R
$$

WIZ056-057-062-063-064-067-068-040300-
SOUTH CENTRAL WISCONSIN

CITY           SKY/WX    TMP DP  RH WIND       PRES   REMARKS
REEDSBURG      CLEAR     69  52  55 W3        29.89S
BARABOO/DELLS  CLEAR     68  48  49 W3        29.89S
LONE ROCK      MOCLDY    68  54  60 W3        29.90R
MINERAL POINT  PTCLDY    68  52  56 W3        29.92R
MADISON        PTCLDY    70  53  54 CALM      29.88R
MIDDLETON      PTCLDY    65  53  64 W3        29.90R
WATERTOWN      CLEAR     69  53  57 W5        29.87R
MONROE         CLEAR     70  52  52 W8        29.90S
JANESVILLE     PTCLDY    70  54  56 CALM      29.88R
$$

WIZ051-052-058>065-066-070>072-040300-
SOUTHEAST WISCONSIN

CITY           SKY/WX    TMP DP  RH WIND       PRES   REMARKS
MILWAUKEE      PTCLDY    75  49  39 W7        29.86R
WAUKESHA       CLEAR     70  50  49 W9        29.88R
MILWAUKEE/TIMM PTCLDY    72  46  40 W6        29.86R
RACINE         CLEAR     70  52  52 SW3       29.88R
BURLINGTON     PTCLDY    64  54  70 W3        29.88R
KENOSHA        CLEAR     66  55  67 W3        29.87R
FOND DU LAC    PTCLDY    69  55  60 W6        29.86R
SHEBOYGAN      PTCLDY    66  56  70 CALM      29.85R
WEST BEND      MOCLDY    68  52  56 W3        29.87R
JUNEAU         PTCLDY    67  54  63 W5        29.89R
$$

LSZ147-162-040300-
LAKE SUPERIOR

STATION/POSITION TIME  TEMP    WIND        PRES    WAVE
                       AIR SEA DIR/SP/G            HT/PER
                 (UTC) (F)     (DEG/KT/KT) (MB)    (FT/S)
W MID LAKE BUOY  0150   58 56  260/ 14/ 16 1009.2R   2/ 4
DEVILS ISLAND    0200   58     270/ 12/ 14 1010.8R
PORT WING        0100   64      CALM  /  3 1011.2R
SAXON HARBOR     0100   64        CALM     1010.5
$$

LMZ867-665-643>646-040300-
LAKE MICHIGAN

STATION/POSITION TIME  TEMP    WIND        PRES    WAVE
                       AIR SEA DIR/SP/G            HT/PER
                 (UTC) (F)     (DEG/KT/KT) (MB)    (FT/S)
CHAMBERS ISLAND  0100   69     300/  3/  7 1009.8R
S GREEN BAY BUOY 0100   69 70  310/  6/  6 1011.5R
N MID LAKE BUOY  0150   65 68   50/  4/  4 1009.5R   1/ 3
NORTHPORT PIER   0100   70     300/  9/ 12 1009.1R
SISTER BAY       0118   71     320/ 14/ 16   N/A
ALGOMA LAKESHORE 0142             CALM       N/A
KEWAUNEE LAKESHO 0100   70     290/  2/  3 1009.5R
SHEBOYGAN LAKESH 0200   72     320/  7/  8 1010.9R
PORT WASHINGTON  0140   74     300/  3/  4 1011.2R
ATWATER BUOY     0200   69 54  270/  6/  6 1012.5R
MILWAUKEE LAKESH 0200   76     280/  7/ 10   N/A
KENOSHA   LAKESH 0200   74     280/  5/  7 1011.2R
$$

TC  - TEMPERATURE IN CELSIUS
VSB - VISIBILITY IN STATUTE MILES
WCI - WIND CHILL INDEX
HX  - HEAT INDEX




USA.gov is the U.S. government's official web portal to all federal, state and local government web resources and services.